This demonstration page uses our WeatherBlox Daily Observations layout. Learn more.

Left ArrowRight Arrow

Hourly Observations for December 5, 2019

Temp ( °F °C ) Dew Point ( °F °C ) Humidity (%) Winds ( mph kmh ) Pressure ( in mb ) Visibility ( mi km ) Precip ( " mm )
12:56 am 00:56 Clear 33 0.6 32 0 96 96 SW 12 19 29.93 1014 10 16 0.00 0.00
1:56 am 01:56 Clear 31 -0.6 29 -1.7 92 92 SW 6 9 29.91 1013 10 16 0.00 0.00
2:56 am 02:56 Clear 28 -2.2 27 -2.8 96 96 SW 5 7 29.91 1013 10 16 0.00 0.00
3:56 am 03:56 Clear 29 -1.7 28 -2.2 96 96 SW 7 11 29.91 1013 10 16 0.00 0.00
4:56 am 04:56 Clear 28 -2.2 27 -2.8 96 96 WSW 5 7 29.91 1013 10 16 0.00 0.00
5:56 am 05:56 Clear 27 -2.8 26 -3.3 96 96 SW 6 9 29.91 1013 10 16 0.00 0.00
6:56 am 06:56 Clear 29 -1.7 28 -2.2 96 96 SW 5 7 29.91 1013 10 16 0.00 0.00
7:56 am 07:56 Sunny 29 -1.7 28 -2.2 96 96 SW 7 11 29.91 1013 10 16 0.00 0.00
8:56 am 08:56 Sunny 34 1.1 32 0 92 92 SW 5 7 29.92 1013 10 16 0.00 0.00
9:56 am 09:56 Sunny 39 3.9 33 0.6 79 79 WNW 8 13 29.92 1013 10 16 0.00 0.00
10:56 am 10:56 Sunny 43 6.1 33 0.6 68 68 NW 7 11 29.93 1014 10 16 0.00 0.00
11:56 am 11:56 undefined 46 7.8 33 0.6 61 61 NW 9 15 29.92 1013 10 16 0.00 0.00
12:56 pm 12:56 undefined 47 8.3 34 1.1 61 61 NNW 9 15 29.90 1013 9 14 0.00 0.00
1:56 pm 13:56 Sunny 49 9.4 35 1.7 59 59 N 14 22 29.91 1013 10 16 0.00 0.00
2:56 pm 14:56 Sunny 48 8.9 34 1.1 58 58 NNW 12 19 29.93 1014 10 16 0.00 0.00
3:56 pm 15:56 Sunny 46 7.8 34 1.1 63 63 NNW 13 20 29.98 1015 10 16 0.00 0.00
4:56 pm 16:56 Sunny 44 6.7 33 0.6 65 65 N 13 20 30.04 1017 10 16 0.00 0.00
5:56 pm 17:56 Clear 40 4.4 32 0 73 73 N 17 28 30.09 1019 10 16 0.00 0.00
6:56 pm 18:56 Clear 38 3.3 31 -0.6 76 76 N 21 33 30.12 1020 10 16 0.00 0.00
7:56 pm 19:56 Clear 36 2.2 31 -0.6 82 82 N 17 28 30.16 1022 10 16 0.00 0.00
8:13 pm 20:13 Mostly Cloudy 36 2 30 -1 81 81 N 20 31 30.19 1022 10 16 0.00 0.00
8:24 pm 20:24 Cloudy 36 2 30 -1 81 81 N 20 31 30.20 1023 10 16 0.00 0.00
8:56 pm 20:56 Cloudy 36 2.2 32 0 86 86 N 23 37 30.20 1023 10 16 0.00 0.00
9:41 pm 21:41 Cloudy 36 2 30 -1 81 81 N 21 33 30.26 1025 8 13 0.00 0.00
9:56 pm 21:56 Cloudy 35 1.7 31 -0.6 85 85 N 23 37 30.24 1024 8 13 0.00 0.00
10:08 pm 22:08 Cloudy 36 2 30 -1 81 81 N 21 33 30.28 1026 9 14 0.00 0.00
10:56 pm 22:56 Cloudy 34 1.1 30 -1.1 85 85 N 20 31 30.27 1025 10 16 0.00 0.00
11:56 pm 23:56 Cloudy 31 -0.6 28 -2.2 89 89 N 20 31 30.31 1026 10 16 0.00 0.00

Powered by AerisWeather